Time,TemperatureF,DewpointF,PressureIn,WindDirection,WindDirectionDegrees,WindSpeedMPH,WindSpeedGustMPH,Humidity,HourlyPrecipIn,Conditions,Clouds,dailyrainin,SoftwareType,DateUTC
2013-04-05 00:14:00,47.7,47.1,29.86,West,270,2.2,-999.0,98,-99.99,,,0.00,Acu-Link.com,2013-04-05 05:14:00,
2013-04-05 00:30:00,48.7,48.2,29.87,West,270,1.6,-999.0,98,-99.99,,,0.00,Acu-Link.com,2013-04-05 05:30:00,
2013-04-05 00:45:00,48.7,48.2,29.87,NNW,337,1.6,-999.0,98,-99.99,,,0.00,Acu-Link.com,2013-04-05 05:45:00,
2013-04-05 01:00:00,48.7,48.2,29.88,West,270,2.2,-999.0,98,-99.99,,,0.00,Acu-Link.com,2013-04-05 06:00:00,
2013-04-05 01:15:00,48.7,48.2,29.87,North,0,1.6,-999.0,98,-99.99,,,0.00,Acu-Link.com,2013-04-05 06:15:00,
2013-04-05 01:30:00,48.4,47.8,29.87,ESE,112,2.7,-999.0,98,-99.99,,,0.00,Acu-Link.com,2013-04-05 06:30:00,
2013-04-05 01:45:00,48.2,47.7,29.88,NNE,22,2.7,-999.0,98,-99.99,,,0.00,Acu-Link.com,2013-04-05 06:45:00,
2013-04-05 02:16:00,48.0,47.5,29.88,SW,225,3.1,-999.0,98,-99.99,,,0.00,Acu-Link.com,2013-04-05 07:16:00,
2013-04-05 02:31:00,47.7,47.1,29.89,NNE,22,2.7,-999.0,98,-99.99,,,0.00,Acu-Link.com,2013-04-05 07:31:00,
2013-04-05 02:47:00,47.7,47.1,29.88,ENE,67,3.1,-999.0,98,-99.99,,,0.00,Acu-Link.com,2013-04-05 07:47:00,
2013-04-05 03:02:00,47.7,47.1,29.88,NNE,22,5.1,-999.0,98,-99.99,,,0.00,Acu-Link.com,2013-04-05 08:02:00,
2013-04-05 03:18:00,47.7,47.1,29.88,SE,135,2.7,-999.0,98,-99.99,,,0.00,Acu-Link.com,2013-04-05 08:18:00,
2013-04-05 03:33:00,47.7,47.1,29.87,North,0,1.1,-999.0,98,-99.99,,,0.00,Acu-Link.com,2013-04-05 08:33:00,
2013-04-05 03:48:00,47.5,46.9,29.88,NNE,22,4.7,-999.0,98,-99.99,,,0.00,Acu-Link.com,2013-04-05 08:48:00,
2013-04-05 04:03:00,47.5,46.9,29.88,NE,45,2.2,-999.0,98,-99.99,,,0.00,Acu-Link.com,2013-04-05 09:03:00,
2013-04-05 04:18:00,47.5,46.9,29.87,East,90,1.6,-999.0,98,-99.99,,,0.00,Acu-Link.com,2013-04-05 09:18:00,
2013-04-05 04:33:00,47.5,46.9,29.87,ENE,67,3.8,-999.0,98,-99.99,,,0.00,Acu-Link.com,2013-04-05 09:33:00,
2013-04-05 04:48:00,47.5,46.9,29.88,NW,315,1.6,-999.0,98,-99.99,,,0.00,Acu-Link.com,2013-04-05 09:48:00,
2013-04-05 05:03:00,47.5,46.9,29.88,North,0,4.3,-999.0,98,-99.99,,,0.00,Acu-Link.com,2013-04-05 10:03:00,
2013-04-05 05:18:00,47.5,46.9,29.89,SW,225,2.7,-999.0,98,-99.99,,,0.00,Acu-Link.com,2013-04-05 10:18:00,
2013-04-05 06:04:00,47.7,47.1,29.89,WNW,292,1.6,-999.0,98,-99.99,,,0.00,Acu-Link.com,2013-04-05 11:04:00,
2013-04-05 06:19:00,47.8,47.3,29.90,NE,45,2.7,-999.0,98,-99.99,,,0.00,Acu-Link.com,2013-04-05 11:19:00,
2013-04-05 06:35:00,47.8,47.3,29.91,NNE,22,4.7,-999.0,98,-99.99,,,0.00,Acu-Link.com,2013-04-05 11:35:00,
2013-04-05 06:50:00,47.7,47.1,29.91,NE,45,4.3,-999.0,98,-99.99,,,0.00,Acu-Link.com,2013-04-05 11:50:00,
2013-04-05 07:05:00,47.7,47.1,29.92,NNE,22,1.6,-999.0,98,-99.99,,,0.00,Acu-Link.com,2013-04-05 12:05:00,
2013-04-05 07:21:00,47.7,47.1,29.93,North,0,2.2,-999.0,98,-99.99,,,0.00,Acu-Link.com,2013-04-05 12:21:00,
2013-04-05 07:51:00,48.2,47.7,29.95,North,0,1.1,-999.0,98,-99.99,,,0.00,Acu-Link.com,2013-04-05 12:51:00,
2013-04-05 08:06:00,48.7,48.2,29.96,North,0,3.1,-999.0,98,-99.99,,,0.00,Acu-Link.com,2013-04-05 13:06:00,
2013-04-05 08:22:00,48.9,48.4,29.96,NE,45,6.3,-999.0,98,-99.99,,,0.00,Acu-Link.com,2013-04-05 13:22:00,
2013-04-05 08:37:00,49.5,48.9,29.97,NNE,22,2.7,-999.0,98,-99.99,,,0.00,Acu-Link.com,2013-04-05 13:37:00,
2013-04-05 08:52:00,49.8,49.3,29.97,NNE,22,3.1,-999.0,98,-99.99,,,0.00,Acu-Link.com,2013-04-05 13:52:00,
2013-04-05 09:08:00,50.2,49.6,29.98,ENE,67,3.8,-999.0,98,-99.99,,,0.00,Acu-Link.com,2013-04-05 14:08:00,
2013-04-05 09:23:00,50.5,50.0,29.98,WNW,292,1.1,-999.0,98,-99.99,,,0.00,Acu-Link.com,2013-04-05 14:23:00,
2013-04-05 09:38:00,51.6,51.1,29.98,NE,45,4.7,-999.0,98,-99.99,,,0.00,Acu-Link.com,2013-04-05 14:38:00,
2013-04-05 10:24:00,54.5,53.9,29.98,NNE,22,6.3,-999.0,98,-99.99,,,0.00,Acu-Link.com,2013-04-05 15:24:00,
2013-04-05 10:39:00,54.1,53.6,29.98,NNE,22,7.4,-999.0,98,-99.99,,,0.00,Acu-Link.com,2013-04-05 15:39:00,
2013-04-05 10:54:00,54.7,54.1,29.99,NE,45,4.3,-999.0,98,-99.99,,,0.00,Acu-Link.com,2013-04-05 15:54:00,
2013-04-05 11:10:00,54.7,54.1,30.00,NNE,22,7.4,-999.0,98,-99.99,,,0.00,Acu-Link.com,2013-04-05 16:10:00,
2013-04-05 11:25:00,54.7,54.1,30.00,NE,45,4.7,-999.0,98,-99.99,,,0.00,Acu-Link.com,2013-04-05 16:25:00,
2013-04-05 11:40:00,55.4,54.8,30.01,West,270,2.7,-999.0,98,-99.99,,,0.00,Acu-Link.com,2013-04-05 16:40:00,
2013-04-05 11:55:00,55.9,55.4,30.00,East,90,3.8,-999.0,98,-99.99,,,0.00,Acu-Link.com,2013-04-05 16:55:00,
2013-04-05 12:11:00,57.6,57.0,29.99,NNW,337,11.0,-999.0,98,-99.99,,,0.00,Acu-Link.com,2013-04-05 17:11:00,
2013-04-05 12:26:00,57.2,56.6,29.98,ESE,112,2.7,-999.0,98,-99.99,,,0.00,Acu-Link.com,2013-04-05 17:26:00,
2013-04-05 12:41:00,58.3,57.7,29.97,NNE,22,5.8,-999.0,98,-99.99,,,0.00,Acu-Link.com,2013-04-05 17:41:00,
2013-04-05 12:57:00,58.5,57.9,29.97,ENE,67,6.7,-999.0,98,-99.99,,,0.00,Acu-Link.com,2013-04-05 17:57:00,
2013-04-05 13:12:00,60.6,60.1,29.96,NNE,22,3.8,-999.0,98,-99.99,,,0.00,Acu-Link.com,2013-04-05 18:12:00,
2013-04-05 13:27:00,62.2,61.7,29.96,West,270,4.3,-999.0,98,-99.99,,,0.00,Acu-Link.com,2013-04-05 18:27:00,
2013-04-05 13:42:00,62.1,61.5,29.95,ENE,67,4.3,-999.0,98,-99.99,,,0.00,Acu-Link.com,2013-04-05 18:42:00,
2013-04-05 13:58:00,63.5,62.9,29.93,ENE,67,3.8,-999.0,98,-99.99,,,0.00,Acu-Link.com,2013-04-05 18:58:00,
2013-04-05 14:13:00,66.2,65.6,29.93,NE,45,4.7,-999.0,98,-99.99,,,0.00,Acu-Link.com,2013-04-05 19:13:00,
2013-04-05 14:28:00,66.0,62.0,29.93,NE,45,6.3,-999.0,87,-99.99,,,0.00,Acu-Link.com,2013-04-05 19:28:00,
2013-04-05 14:44:00,66.9,61.9,29.92,NNE,22,7.8,-999.0,84,-99.99,,,0.00,Acu-Link.com,2013-04-05 19:44:00,
2013-04-05 15:14:00,68.2,62.1,29.91,NW,315,4.7,-999.0,81,-99.99,,,0.00,Acu-Link.com,2013-04-05 20:14:00,
2013-04-05 15:30:00,67.8,61.4,29.90,NNE,22,2.7,-999.0,80,-99.99,,,0.00,Acu-Link.com,2013-04-05 20:30:00,
2013-04-05 15:45:00,68.4,60.5,29.89,NNE,22,8.3,-999.0,76,-99.99,,,0.00,Acu-Link.com,2013-04-05 20:45:00,
2013-04-05 16:00:00,69.3,60.6,29.89,ENE,67,5.1,-999.0,74,-99.99,,,0.00,Acu-Link.com,2013-04-05 21:00:00,
2013-04-05 16:15:00,70.0,60.9,29.88,NNE,22,6.3,-999.0,73,-99.99,,,0.00,Acu-Link.com,2013-04-05 21:15:00,
2013-04-05 17:01:00,71.4,59.9,29.87,NNE,22,6.7,-999.0,67,-99.99,,,0.00,Acu-Link.com,2013-04-05 22:01:00,
2013-04-05 17:16:00,70.2,59.9,29.86,NE,45,5.1,-999.0,70,-99.99,,,0.00,Acu-Link.com,2013-04-05 22:16:00,
2013-04-05 17:32:00,72.7,59.3,29.87,NNE,22,1.6,-999.0,63,-99.99,,,0.00,Acu-Link.com,2013-04-05 22:32:00,
2013-04-05 17:47:00,71.2,59.7,29.87,East,90,4.7,-999.0,67,-99.99,,,0.00,Acu-Link.com,2013-04-05 22:47:00,
2013-04-05 18:02:00,69.1,59.7,29.87,East,90,4.3,-999.0,72,-99.99,,,0.00,Acu-Link.com,2013-04-05 23:02:00,
2013-04-05 18:18:00,68.2,58.8,29.87,NE,45,4.7,-999.0,72,-99.99,,,0.00,Acu-Link.com,2013-04-05 23:18:00,
2013-04-05 18:33:00,67.6,59.0,29.88,East,90,1.1,-999.0,74,-99.99,,,0.00,Acu-Link.com,2013-04-05 23:33:00,
2013-04-05 18:48:00,67.1,58.9,29.88,NE,45,1.1,-999.0,75,-99.99,,,0.00,Acu-Link.com,2013-04-05 23:48:00,
2013-04-05 19:03:00,65.8,59.5,29.88,ESE,112,0.0,-999.0,80,-99.99,,,0.00,Acu-Link.com,2013-04-06 00:03:00,
2013-04-05 19:34:00,62.6,62.0,29.89,SW,225,0.0,-999.0,98,-99.99,,,0.00,Acu-Link.com,2013-04-06 00:34:00,
2013-04-05 19:49:00,60.8,60.2,29.89,SSE,157,0.0,-999.0,98,-99.99,,,0.00,Acu-Link.com,2013-04-06 00:49:00,
2013-04-05 20:04:00,59.0,58.4,29.89,SSE,157,0.0,-999.0,98,-99.99,,,0.00,Acu-Link.com,2013-04-06 01:04:00,
2013-04-05 20:20:00,57.7,57.2,29.91,SSE,157,0.0,-999.0,98,-99.99,,,0.00,Acu-Link.com,2013-04-06 01:20:00,
2013-04-05 20:35:00,56.7,56.1,29.91,SW,225,1.6,-999.0,98,-99.99,,,0.00,Acu-Link.com,2013-04-06 01:35:00,
2013-04-05 20:50:00,55.8,55.2,29.92,SW,225,0.0,-999.0,98,-99.99,,,0.00,Acu-Link.com,2013-04-06 01:50:00,
2013-04-05 21:06:00,55.0,54.5,29.92,SW,225,0.0,-999.0,98,-99.99,,,0.00,Acu-Link.com,2013-04-06 02:06:00,
2013-04-05 21:36:00,53.4,52.9,29.93,East,90,0.0,-999.0,98,-99.99,,,0.00,Acu-Link.com,2013-04-06 02:36:00,
2013-04-05 21:51:00,52.7,52.2,29.93,SE,135,0.0,-999.0,98,-99.99,,,0.00,Acu-Link.com,2013-04-06 02:51:00,
2013-04-05 22:07:00,52.0,51.4,29.93,East,90,1.6,-999.0,98,-99.99,,,0.00,Acu-Link.com,2013-04-06 03:07:00,
2013-04-05 22:22:00,51.4,50.9,29.94,East,90,0.0,-999.0,98,-99.99,,,0.00,Acu-Link.com,2013-04-06 03:22:00,
2013-04-05 22:37:00,51.3,50.7,29.93,ESE,112,0.0,-999.0,98,-99.99,,,0.00,Acu-Link.com,2013-04-06 03:37:00,
2013-04-05 23:07:00,50.4,49.8,29.94,ESE,112,0.0,-999.0,98,-99.99,,,0.00,Acu-Link.com,2013-04-06 04:07:00,
2013-04-05 23:23:00,50.0,49.5,29.94,ESE,112,0.0,-999.0,98,-99.99,,,0.00,Acu-Link.com,2013-04-06 04:23:00,
2013-04-05 23:38:00,49.5,48.9,29.94,ESE,112,0.0,-999.0,98,-99.99,,,0.00,Acu-Link.com,2013-04-06 04:38:00,
2013-04-05 23:53:00,49.3,48.7,29.93,ESE,112,0.0,-999.0,98,-99.99,,,0.00,Acu-Link.com,2013-04-06 04:53:00,